F4DVI Weather Reports


time (UTC)temp
C
wind
direction
speed
KPH
gust
KPH
rain 1hr
cm
rain 24hr
cm
rain mn
cm
humidity
%
barometer
mb
20260507132328 26 135 9.7 9.7 0.00 0.03 0.03 30
20260507131828 27 66 3.2 11.3 0.00 0.03 0.03 30
20260507131328 27 147 9.7 11.3 0.00 0.03 0.03 34
20260507130828 26 118 8.0 8.0 0.00 0.03 0.03 34
20260507130328 25 284 0.0 6.4 0.00 0.03 0.03 36
20260507125828 25 309 4.8 8.0 0.00 0.03 0.03 33
20260507125422 26 60 1.6 9.7 0.00 0.03 0.03 29
20260507125328 26 60 1.6 9.7 0.00 0.03 0.03 29
20260507124828 27 15 0.0 8.0 0.00 0.03 0.03 30
20260507124506 28 165 4.8 8.0 0.00 0.03 0.03 31
20260507124328 28 165 4.8 8.0 0.00 0.03 0.03 31
20260507123828 27 142 4.8 11.3 0.00 0.03 0.03 30
20260507123328 27 56 8.0 16.1 0.00 0.03 0.03 31
20260507122828 28 87 3.2 11.3 0.00 0.03 0.03 30
20260507122328 27 189 9.7 9.7 0.00 0.03 0.03 33
20260507121828 27 64 3.2 9.7 0.00 0.03 0.03 32
20260507121328 26 54 1.6 4.8 0.00 0.03 0.03 37
20260507120828 26 14 0.0 6.4 0.00 0.03 0.03 32
20260507120328 26 39 0.0 8.0 0.00 0.03 0.03 30
20260507115828 27 67 4.8 9.7 0.00 0.03 0.03 34
20260507115328 26 82 1.6 11.3 0.00 0.03 0.03 34
20260507114830 27 68 4.8 12.9 0.00 0.03 0.03 33
20260507114828 27 68 4.8 12.9 0.00 0.03 0.03 33
20260507114328 26 354 3.2 9.7 0.00 0.03 0.03 33
20260507113828 26 32 0.0 8.0 0.00 0.05 0.03 33
20260507113329 26 74 1.6 6.4 0.00 0.05 0.03 36
20260507112828 26 338 6.4 9.7 0.00 0.05 0.03 38
20260507112328 26 351 4.8 6.4 0.00 0.05 0.03 36
20260507111828 27 330 1.6 6.4 0.00 0.05 0.03 34
20260507111328 27 338 1.6 9.7 0.00 0.05 0.03 36
20260507110828 27 226 6.4 8.0 0.00 0.05 0.03 40
20260507110328 26 303 0.0 4.8 0.00 0.05 0.03 46
20260507105828 24 43 0.0 3.2 0.00 0.05 0.03 44
20260507105328 22 330 0.0 4.8 0.00 0.05 0.03 47
20260507104828 22 227 0.0 3.2 0.00 0.05 0.03 44
20260507104328 23 97 3.2 6.4 0.00 0.05 0.03 40
20260507103828 24 80 1.6 8.0 0.00 0.05 0.03 39
20260507103328 24 99 4.8 11.3 0.00 0.05 0.03 39
20260507102829 24 175 0.0 9.7 0.00 0.05 0.03 41
20260507102329 24 232 0.0 6.4 0.00 0.05 0.03 45
20260507101829 23 355 3.2 6.4 0.00 0.05 0.03 45
20260507101329 22 63 0.0 6.4 0.00 0.05 0.03 44
20260507100829 22 347 1.6 4.8 0.00 0.05 0.03 49
20260507100329 22 167 1.6 4.8 0.00 0.05 0.03 48
20260507095829 21 73 0.0 9.7 0.00 0.05 0.03 49
20260507095329 21 108 6.4 6.4 0.00 0.05 0.03 50
20260507094829 20 54 1.6 9.7 0.00 0.05 0.03 49
20260507094329 20 45 0.0 9.7 0.00 0.05 0.03 50
20260507093829 20 81 4.8 9.7 0.00 0.05 0.03 51
20260507093329 19 258 0.0 8.0 0.00 0.05 0.03 56
20260507092829 18 116 0.0 6.4 0.00 0.05 0.03 55
20260507092329 18 144 6.4 6.4 0.00 0.05 0.03 54
20260507091829 18 104 3.2 8.0 0.00 0.05 0.03 55
20260507091329 18 160 4.8 6.4 0.00 0.05 0.03 57
20260507090829 17 59 1.6 6.4 0.00 0.05 0.03 58
20260507090329 17 127 4.8 6.4 0.00 0.05 0.03 57
20260507085829 17 170 4.8 6.4 0.00 0.05 0.03 59
20260507085329 16 158 6.4 8.0 0.00 0.05 0.03 59
20260507084829 16 104 4.8 6.4 0.00 0.05 0.03 60
20260507084329 17 59 0.0 8.0 0.00 0.05 0.03 61
20260507083829 16 26 0.0 9.7 0.00 0.05 0.03 62
20260507083329 16 331 0.0 6.4 0.00 0.05 0.03 64
20260507082829 15 331 0.0 8.0 0.00 0.05 0.03 65
20260507082329 15 78 4.8 8.0 0.00 0.05 0.03 65
20260507081829 15 90 0.0 6.4 0.00 0.05 0.03 67
20260507081329 15 40 0.0 4.8 0.00 0.05 0.03 68
20260507080829 15 22 0.0 9.7 0.00 0.05 0.03 68
20260507080329 15 73 1.6 8.0 0.00 0.05 0.03 69
20260507075829 14 337 0.0 4.8 0.00 0.05 0.03 71
20260507075329 14 343 4.8 6.4 0.00 0.05 0.03 70
20260507074829 14 60 0.0 4.8 0.00 0.05 0.03 70
20260507074329 13 30 0.0 4.8 0.00 0.05 0.03 70
20260507073829 13 120 1.6 6.4 0.00 0.05 0.03 71
20260507073329 13 109 4.8 4.8 0.00 0.05 0.03 73
20260507072829 13 106 0.0 3.2 0.00 0.05 0.03 73
20260507072329 12 26 0.0 6.4 0.00 0.05 0.03 74
20260507071829 12 88 6.4 6.4 0.00 0.05 0.03 75
20260507071329 12 330 0.0 4.8 0.00 0.05 0.03 76
20260507070829 12 11 0.0 1.6 0.00 0.05 0.03 76
20260507070329 11 11 0.0 4.8 0.00 0.05 0.03 77
20260507065829 11 94 4.8 4.8 0.00 0.05 0.03 77
20260507065329 11 90 4.8 9.7 0.00 0.05 0.03 77
20260507064829 11 94 6.4 6.4 0.00 0.05 0.03 78
20260507064329 11 102 3.2 8.0 0.00 0.05 0.03 78
20260507063829 11 75 1.6 9.7 0.00 0.05 0.03 79
20260507063329 11 82 6.4 11.3 0.00 0.05 0.03 80
20260507062829 10 192 0.0 6.4 0.00 0.05 0.03 80
20260507062329 10 94 1.6 6.4 0.00 0.05 0.03 80
20260507061829 10 111 1.6 6.4 0.00 0.05 0.03 81
20260507061329 9 109 3.2 4.8 0.00 0.05 0.03 81
20260507060829 9 14 0.0 8.0 0.00 0.05 0.03 82
20260507060329 8 50 0.0 6.4 0.00 0.05 0.03 82
20260507055829 9 82 1.6 4.8 0.00 0.05 0.03 83
20260507055329 8 39 0.0 4.8 0.00 0.05 0.03 84
20260507054829 8 68 0.0 0.0 0.00 0.05 0.03 84
20260507054329 8 68 0.0 0.0 0.00 0.05 0.03 84
20260507053829 8 68 0.0 0.0 0.00 0.05 0.03 84
20260507053329 8 68 0.0 0.0 0.00 0.05 0.03 84
20260507052829 8 68 0.0 0.0 0.00 0.05 0.03 84
20260507052329 7 68 0.0 0.0 0.00 0.05 0.03 85
20260507051829 7 11 0.0 3.2 0.00 0.05 0.03 85
20260507051329 7 82 0.0 0.0 0.00 0.05 0.03 85
20260507050829 7 82 0.0 0.0 0.00 0.05 0.03 85
20260507050329 7 82 0.0 0.0 0.00 0.05 0.03 85
20260507045829 7 82 0.0 0.0 0.00 0.05 0.03 85
20260507045329 7 82 0.0 0.0 0.00 0.05 0.03 85
20260507044829 7 82 0.0 0.0 0.00 0.05 0.03 84
20260507044329 7 82 0.0 3.2 0.00 0.05 0.03 84
20260507043829 7 11 0.0 0.0 0.00 0.05 0.03 84
20260507043329 7 11 0.0 0.0 0.00 0.05 0.03 84
20260507042829 7 11 0.0 0.0 0.00 0.05 0.03 84
20260507042329 7 11 0.0 0.0 0.00 0.05 0.03 83
20260507041829 7 11 0.0 0.0 0.00 0.05 0.03 83
20260507041329 7 11 0.0 0.0 0.00 0.05 0.03 83
20260507040829 8 11 0.0 0.0 0.00 0.05 0.03 83
20260507040329 8 11 0.0 3.2 0.00 0.05 0.03 82
20260507035829 8 26 0.0 1.6 0.00 0.05 0.03 82
20260507035329 8 47 0.0 0.0 0.00 0.05 0.03 82
20260507034829 8 47 0.0 0.0 0.00 0.05 0.03 82
20260507034329 9 47 0.0 0.0 0.00 0.05 0.03 82
20260507033829 8 47 0.0 1.6 0.00 0.05 0.03 81
20260507033329 9 88 0.0 3.2 0.00 0.05 0.03 81
20260507032829 9 113 0.0 0.0 0.03 0.05 0.03 81
20260507032329 9 113 0.0 0.0 0.03 0.05 0.03 81
20260507031829 9 113 0.0 0.0 0.03 0.05 0.03 81
20260507031329 9 113 0.0 0.0 0.03 0.05 0.03 81
20260507030829 9 113 0.0 1.6 0.03 0.05 0.03 80
20260507030329 9 53 0.0 3.2 0.03 0.05 0.03 80
20260507025829 10 56 0.0 0.0 0.03 0.05 0.03 80
20260507025329 9 56 0.0 3.2 0.03 0.05 0.03 80
20260507024829 9 25 0.0 1.6 0.03 0.05 0.03 81
20260507024329 9 47 0.0 0.0 0.03 0.05 0.03 81
20260507023829 9 33 0.0 3.2 0.03 0.05 0.03 81
20260507023329 10 2 0.0 0.0 0.03 0.05 0.03 82
20260507022829 9 2 0.0 0.0 0.00 0.03 0.00 82
20260507022329 9 2 0.0 0.0 0.00 0.03 0.00 82
20260507021829 9 2 0.0 0.0 0.00 0.03 0.00 83
20260507021329 9 2 0.0 0.0 0.00 0.03 0.00 83
20260507020829 9 2 0.0 0.0 0.00 0.03 0.00 83
20260507020329 9 2 0.0 0.0 0.00 0.03 0.00 83
20260507015829 10 2 0.0 0.0 0.00 0.03 0.00 83
20260507015329 10 2 0.0 0.0 0.00 0.03 0.00 83
20260507014829 10 2 0.0 0.0 0.00 0.03 0.00 83
20260507014329 10 2 0.0 0.0 0.00 0.03 0.00 83
20260507013829 10 2 0.0 0.0 0.00 0.03 0.00 84
20260507013329 10 2 0.0 0.0 0.00 0.03 0.00 84
20260507012829 10 2 0.0 0.0 0.00 0.03 0.00 83
20260507012329 10 2 0.0 0.0 0.00 0.03 0.00 83
20260507011829 10 2 0.0 0.0 0.00 0.03 0.00 83
20260507011329 10 2 0.0 0.0 0.00 0.03 0.00 83
20260507010829 10 2 0.0 0.0 0.00 0.03 0.00 83
20260507010329 10 2 0.0 0.0 0.00 0.03 0.00 83
20260507005829 10 2 0.0 0.0 0.00 0.03 0.00 83
20260507005329 10 2 0.0 0.0 0.00 0.03 0.00 83
20260507004829 10 2 0.0 0.0 0.00 0.03 0.00 83
20260507004329 10 2 0.0 0.0 0.00 0.03 0.00 83
20260507003829 11 2 0.0 0.0 0.00 0.03 0.00 83
20260507003329 10 2 0.0 0.0 0.00 0.03 0.00 82
20260507002829 10 2 0.0 0.0 0.00 0.03 0.00 82
20260507002329 10 2 0.0 0.0 0.00 0.03 0.00 82
20260507001829 11 2 0.0 0.0 0.00 0.03 0.00 82
20260507001329 10 2 0.0 0.0 0.00 0.03 0.00 82
20260507000829 11 2 0.0 0.0 0.00 0.03 0.00 82
20260507000329 11 2 0.0 0.0 0.00 0.03 0.00 82
20260506235830 11 2 0.0 0.0 0.00 0.03 0.00 82
20260506235330 11 2 0.0 0.0 0.00 0.03 0.00 82
20260506234829 11 2 0.0 0.0 0.00 0.03 0.00 82
20260506234330 11 2 0.0 0.0 0.00 0.03 0.00 81
20260506233830 11 2 0.0 0.0 0.00 0.03 0.00 81
20260506233330 11 2 0.0 0.0 0.00 0.03 0.00 81
20260506232830 11 2 0.0 0.0 0.00 0.03 0.00 81
20260506232330 11 2 0.0 0.0 0.00 0.03 0.00 81
20260506231830 11 2 0.0 0.0 0.00 0.03 0.00 81
20260506231330 11 2 0.0 0.0 0.00 0.03 0.00 80
20260506230830 11 2 0.0 0.0 0.00 0.03 0.00 80
20260506230330 11 2 0.0 0.0 0.00 0.03 0.00 80
20260506225830 11 2 0.0 0.0 0.00 0.03 0.00 80
20260506225330 11 2 0.0 0.0 0.00 0.03 0.00 80
20260506224830 11 2 0.0 0.0 0.00 0.03 0.03 79
20260506224330 11 2 0.0 0.0 0.00 0.03 0.03 79
20260506223830 11 2 0.0 0.0 0.00 0.03 0.03 79
20260506223330 11 2 0.0 0.0 0.00 0.03 0.03 79
20260506222830 11 2 0.0 0.0 0.00 0.03 0.03 79
20260506222330 11 2 0.0 0.0 0.00 0.03 0.03 80
20260506221830 11 2 0.0 0.0 0.00 0.03 0.03 79
20260506221330 11 2 0.0 0.0 0.00 0.03 0.03 79
20260506220830 11 2 0.0 0.0 0.00 0.03 0.03 79
20260506220330 11 2 0.0 0.0 0.00 0.03 0.03 79
20260506215830 11 2 0.0 0.0 0.00 0.03 0.03 79
20260506215330 11 2 0.0 0.0 0.00 0.03 0.03 79
20260506214830 11 2 0.0 0.0 0.00 0.03 0.03 78
20260506214330 12 2 0.0 0.0 0.00 0.03 0.03 78
20260506213830 11 2 0.0 0.0 0.00 0.03 0.03 78
20260506213330 11 2 0.0 0.0 0.00 0.03 0.03 78
20260506212830 12 2 0.0 0.0 0.00 0.03 0.03 78
20260506212330 12 2 0.0 0.0 0.00 0.03 0.03 78
20260506211830 12 2 0.0 0.0 0.00 0.03 0.03 78
20260506211330 12 2 0.0 0.0 0.00 0.03 0.03 78
20260506210830 12 2 0.0 0.0 0.00 0.03 0.03 77
20260506210330 12 2 0.0 0.0 0.00 0.03 0.03 77
20260506205830 12 2 0.0 0.0 0.00 0.03 0.03 77
20260506205330 12 2 0.0 0.0 0.00 0.03 0.03 77
20260506204830 12 2 0.0 0.0 0.00 0.03 0.03 77
20260506204330 12 2 0.0 1.6 0.00 0.03 0.03 76
20260506203830 12 322 0.0 0.0 0.00 0.03 0.03 76
20260506203330 12 322 0.0 0.0 0.00 0.03 0.03 76
20260506202830 12 322 0.0 0.0 0.00 0.03 0.03 76
20260506202330 12 322 0.0 0.0 0.00 0.03 0.03 75
20260506201830 12 322 0.0 0.0 0.00 0.03 0.03 75
20260506201330 12 322 0.0 0.0 0.00 0.03 0.03 75
20260506200830 12 322 0.0 0.0 0.00 0.03 0.03 75
20260506200330 12 322 0.0 0.0 0.00 0.03 0.03 74
20260506195830 12 322 0.0 0.0 0.00 0.03 0.03 74
20260506195330 13 322 0.0 0.0 0.00 0.03 0.03 74
20260506194830 13 322 0.0 0.0 0.00 0.03 0.03 73
20260506194330 12 322 0.0 0.0 0.00 0.03 0.03 73
20260506193830 13 322 0.0 0.0 0.00 0.03 0.03 72
20260506193330 13 322 0.0 0.0 0.00 0.03 0.03 72
20260506192830 13 322 0.0 4.8 0.00 0.03 0.03 71
20260506192330 13 347 0.0 3.2 0.00 0.03 0.03 71
20260506191830 13 305 0.0 0.0 0.00 0.03 0.03 70
20260506191330 14 306 0.0 0.0 0.00 0.03 0.03 70
20260506190830 14 306 0.0 0.0 0.00 0.03 0.03 69
20260506190330 14 306 0.0 4.8 0.00 0.03 0.03 68
20260506185830 14 345 1.6 1.6 0.00 0.03 0.03 67
20260506185330 14 320 0.0 4.8 0.00 0.03 0.03 66
20260506184830 14 326 0.0 3.2 0.00 0.03 0.03 66
20260506184330 15 316 0.0 1.6 0.00 0.03 0.03 66
20260506183830 14 344 0.0 0.0 0.00 0.03 0.03 66
20260506183330 14 344 0.0 3.2 0.00 0.03 0.03 65
20260506182830 15 320 0.0 4.8 0.00 0.03 0.03 65
20260506182330 15 309 0.0 4.8 0.00 0.03 0.03 65
20260506181830 15 270 0.0 3.2 0.00 0.03 0.03 64
20260506181330 15 341 0.0 3.2 0.00 0.03 0.03 63
20260506180830 15 348 3.2 3.2 0.00 0.03 0.03 64
20260506180330 15 258 0.0 6.4 0.00 0.03 0.03 63
20260506175830 15 293 0.0 3.2 0.00 0.03 0.03 63
20260506175330 15 293 0.0 4.8 0.00 0.03 0.03 63
20260506174830 15 338 0.0 1.6 0.00 0.03 0.03 62
20260506174330 16 278 1.6 6.4 0.00 0.03 0.03 62
20260506173830 16 341 0.0 6.4 0.00 0.03 0.03 60
20260506173330 16 298 1.6 1.6 0.00 0.03 0.03 59
20260506172830 16 319 0.0 1.6 0.00 0.03 0.03 58
20260506172330 16 23 0.0 1.6 0.00 0.03 0.03 58
20260506171830 16 23 0.0 0.0 0.00 0.03 0.03 58
20260506171330 16 23 0.0 0.0 0.00 0.03 0.03 56
20260506170830 16 23 0.0 0.0 0.00 0.03 0.03 56
20260506170330 16 23 0.0 6.4 0.00 0.03 0.03 55
20260506165830 17 56 4.8 8.0 0.00 0.03 0.03 55
20260506165330 17 354 0.0 1.6 0.00 0.03 0.03 55
20260506164830 17 348 0.0 0.0 0.00 0.03 0.03 53
20260506164330 17 348 0.0 0.0 0.00 0.03 0.03 55
20260506163830 17 108 0.0 1.6 0.00 0.05 0.03 54
20260506163330 17 47 0.0 3.2 0.00 0.05 0.03 55
20260506162830 17 78 3.2 4.8 0.00 0.05 0.03 53
20260506162330 17 341 1.6 6.4 0.00 0.05 0.03 53
20260506161830 17 54 4.8 4.8 0.00 0.05 0.03 52
20260506161330 17 315 0.0 0.0 0.00 0.05 0.03 54
20260506160830 17 315 0.0 8.0 0.00 0.05 0.03 55
20260506160330 17 85 8.0 8.0 0.00 0.05 0.03 52
20260506155830 17 23 0.0 9.7 0.00 0.05 0.03 52
20260506155330 17 64 0.0 4.8 0.00 0.05 0.03 53
20260506154830 18 45 0.0 8.0 0.00 0.05 0.03 52
20260506154330 17 88 4.8 9.7 0.00 0.05 0.03 53
20260506153830 18 284 0.0 3.2 0.00 0.05 0.03 52
20260506153330 18 327 1.6 11.3 0.00 0.05 0.03 51
20260506152830 18 87 4.8 8.0 0.00 0.05 0.03 51
20260506152330 19 33 0.0 4.8 0.00 0.05 0.03 52
20260506151830 19 85 1.6 3.2 0.00 0.05 0.03 52
20260506151330 19 25 0.0 4.8 0.00 0.05 0.03 51
20260506150830 18 357 0.0 6.4 0.00 0.05 0.03 51
20260506150330 19 344 1.6 9.7 0.00 0.05 0.03 50
20260506145830 20 338 0.0 4.8 0.00 0.05 0.03 52
20260506145330 20 1 0.0 6.4 0.00 0.05 0.03 51
20260506144830 20 352 3.2 12.9 0.00 0.05 0.03 55
20260506144330 20 298 0.0 8.0 0.00 0.05 0.03 55
20260506143830 20 324 0.0 11.3 0.00 0.05 0.03 53
20260506143330 20 77 0.0 8.0 0.00 0.05 0.03 54
20260506142830 20 307 0.0 6.4 0.00 0.05 0.03 56
20260506142330 19 357 0.0 6.4 0.00 0.05 0.03 55
20260506141830 19 338 0.0 3.2 0.00 0.05 0.03 56
20260506141330 18 267 0.0 4.8 0.00 0.05 0.03 56
20260506140830 18 8 4.8 6.4 0.00 0.05 0.03 57
20260506140330 18 82 1.6 9.7 0.00 0.05 0.03 56
20260506135830 18 1 0.0 6.4 0.00 0.05 0.03 58
20260506135330 18 94 0.0 1.6 0.00 0.05 0.03 59
20260506134830 17 40 0.0 9.7 0.00 0.05 0.03 59
20260506134330 17 18 1.6 4.8 0.00 0.05 0.03 60
20260506133830 18 85 0.0 6.4 0.00 0.05 0.03 61
20260506133330 18 330 0.0 4.8 0.00 0.05 0.03 61
20260506132830 18 275 0.0 8.0 0.00 0.05 0.03 62